EHI
0 0 0 0 0 0 0 0 0 0 0 0 0 0 0 0 0 0 0 0 0 0 0 0 0 0 0 0 0 0 0 0 0 0 0 0 0 0 0 0 0 0 0
0 0 0 0 0 0 0 0 0 0 0 0 0 0 0 0 0 0 0 0 0 0 0 0 0 0 0 0 0 0 0 0 0 0 0 0 0 0 0 0 0 0 0
0 0 0 0 0 0 0 0 0 0 0 0 0 0 0 0 0 0 0 0 0 0 0 0 0 0 0 0 0 0 0 0 0 0 0 0 0 0 0 0 0 0 0
0 0 0 0 0 0 0 0 0 0 0 0 0 0 0 0 0 0 0 0 0 0 0 0 0 0 0 0 0 0 0 0 0 0 0 0 0 0 0 0 0 0 0
0 0 0 0 0 0 0 0 0 0 0 0 0 0 0 0 0 0 0 0 0 0 0 0 0 0 0 0 0 0 0 0 0 0 0 0 0 0 0 0 0 0 0
0 0 0 0 0 0 0 0 0 0 0 0 0 0 0 0 0 0 0 0 0 0 0 0 0 0 0 0 0 0 0 0 0 0 0 0 0 0 0 0 0 0 0
0 0 0 0 0 0 0 0 0 0 0 0 0 0 0 0 0 0 0 0 0 0 0 0 0 0 0 0 0 0 0 0 0 0 0 0 0 0 0 0 0 0 0
0 0 0 0 0 0 0 0 0 0 0 0 0 0 0 0 0 0 0 0 0 0 0 0 0 0 0 0 0 0 0 0 0 0 0 0 0 0 0 0 0 0 0
0 0 0 0 0 0 0 0 0 0 0 0 0 0 0 0 0 0 0 0 0 0 0 0 0 0 0 0 0 0 0 0 0 0 0 0 0 0 0 0 0 0 0
0 0 0 0 0 0 0 0 0 0 0 0 0 0 0 0 0 0 0 0 0 0 0 0 0 0 0 0 0 0 0 0 0 0 0 0 0 0 0 0 0 0 0
0 0 0 0 0 0 0 0 0 0 0 0 0 0 0 0 0 0 0 0 0 0 0 0 0 0 0 0 0 0 0 0 0 0 0 0 0 0 0 0 0 0 0
0 0 0 0 0 0 0 0 0 0 0 0 0 0 0 0 0 0 0 0 0 0 0 0 0 0 0 0 0 0 0 0 0 0 0 0 0 0 0 0 0 0 0
0 0 0 0 0 0 0 0 0 0 0 0 0 0 0 0 0 0 0 0 0 0 0 0 0 0 0 0 0 0 0 0 0 0 0 0 0 0 0 0 0 0 0
0 0 0 0 0 0 0 0 0 0 0 0 0 0 0 0 0 0 0 0 0 0 0 0 0 0 0 0 0 0 0 0 0 0 0 0 0 0 0 0 0 0 0
0 0 0 0 0 0 0 0 0 0 0 0 0 0 0 0 0 0 0 0 0 0 0 0 0 0 0 0 0 0 0 0 0 0 0 0 0 0 0 0 0 0 0
0 0 0 0 0 0 0 0 0 0 0 0 0 0 0 0 0 0 0 0 0 0 0 0 0 0 0 0 0 0 0 0 0 0 0 0 0 0 0 0 0 0 0
0 0 0 0 0 0 0 0 0 0 0 0 0 0 0 0 0 0 0 0 0 0 0 0 0 0 0 0 0 0 0 0 0 0 0 0 0 0 0 0 0 0 0
0 0 0 0 0 0 0 0 0 0 0 0 0 0 0 0 0 0 0 0 0 0 0 0 0 0 0 0 0 0 0 0 0 0 0 0 0 0 0 0 0 0 0
0 0 0 0 0 0 0 0 0 0 0 0 0 0 0 0 0 0 0 0 0 0 0 0 0 0 0 0 0 0 0 0 0 0 0 0 0 0 0 0 0 0 0
0 0 0 0 0 0 0 0 0 0 0 0 0 0 0 0 0 0 0 0 0 0 0 0 0 0 0 0 0 0 0 0 0 0 0 0 0 0 0 0 0 0 0
0 0 0 0 0 0 0 0 0 0 0 0 0 0 0 0 0 0 0 0 0 0 0 0 0 0 0 0 0 0 0 0 0 0 0 0 0 0 0 0 0 0 0
0 0 0 0 0 0 0 0 0 0 0 0 0 0 0 0 0 0 0 0 0 0 0 0 0 0 0 0 0 0 0 0 0 0 0 0 0 0 0 0 0 0 0
0 0 0 0 0 0 0 0 0 0 0 0 0 0 0 0 0 0 0 0 0 0 0 0 0 0 0 0 0 0 0 0 0 0 0 0 0 0 0 0 0 0 0
0 0 0 0 0 0 0 0 0 0 0 0 0 0 0 0 0 0 0 0 0 0 0 0 0 0 0 0 0 0 0 0 0 0 0 0 0 0 0 0 0 0 0
0 0 0 0 0 0 0 0 0 0 0 0 0 0 0 0 0 0 0 0 0 0 0 0 0 0 0 0 0 0 0 0 0 0 0 0 0 0 0 0 0 0 0
0 0 0 0 0 0 0 0 0 0 0 0 0 0 0 0 0 0 0 0 0 0 0 0 0 0 0 0 0 0 0 0 0 0 0 0 0 0 0 0 0 0 0
Wind_Speed
4 5 5 5 6 5 6 7 7 9 9 10 10 13 12 12 12 11 10 24 29 29 30 30 29 27 26 25 24 23 23 23 23 22 22 21 20 20 20 22 23 23 23
4 5 6 6 6 5 6 6 8 8 7 8 9 11 13 12 11 12 12 16 26 29 30 29 28 27 26 25 24 23 23 23 23 22 22 21 20 20 20 21 23 23 24
5 5 5 5 5 6 7 6 8 6 8 9 10 11 11 11 12 14 15 12 13 23 29 28 27 26 24 23 23 23 22 22 22 22 22 21 21 20 20 21 22 24 24
5 5 5 5 6 6 6 6 6 6 7 7 8 9 10 10 13 15 15 14 13 13 17 25 26 24 23 22 23 23 23 22 22 22 22 21 21 20 20 21 22 24 25
5 4 4 5 6 5 5 8 7 7 8 8 9 9 7 9 12 16 16 17 15 14 10 16 21 21 22 22 22 22 22 22 22 21 21 21 20 20 20 21 21 24 26
5 5 5 5 6 5 5 6 8 7 7 8 12 11 8 10 10 12 14 14 14 15 11 10 8 12 20 22 21 21 21 21 21 21 20 20 20 21 21 21 21 23 26
5 5 5 5 5 5 7 8 7 9 8 7 8 10 9 9 11 10 10 12 14 15 12 10 7 6 8 18 20 21 21 20 20 21 20 19 19 20 21 20 21 23 26
5 6 5 5 5 6 7 8 8 7 8 7 8 12 12 10 8 11 10 12 13 12 13 15 11 9 7 5 12 20 20 20 20 20 20 19 19 19 21 21 21 23 26
5 5 5 5 6 6 6 8 8 9 9 9 6 8 10 13 12 8 10 11 11 12 12 11 12 10 10 6 6 12 19 19 19 19 19 19 18 18 18 19 20 23 25
5 5 6 6 6 6 7 8 9 7 9 10 8 6 8 10 12 14 8 8 12 12 12 12 12 11 11 7 9 15 18 18 19 19 19 18 17 17 17 16 18 20 24
5 6 6 5 6 6 7 8 9 8 7 9 10 9 9 8 9 10 13 11 9 9 10 11 10 10 11 9 6 10 16 17 18 19 18 17 17 16 15 14 14 16 20
4 6 6 6 7 7 7 8 8 10 9 10 9 8 9 8 9 8 11 11 11 10 10 10 10 10 10 8 10 16 16 16 17 18 18 17 17 16 16 15 13 12 16
4 5 7 6 6 7 8 8 8 9 10 11 10 9 8 8 8 9 10 11 12 10 10 9 9 9 9 6 6 15 14 17 18 18 18 17 17 16 16 15 14 13 12
5 6 6 7 8 8 10 8 7 9 9 10 12 11 8 8 7 8 9 10 11 10 9 10 8 8 7 7 10 16 9 17 19 18 18 17 17 16 16 15 14 13 12
6 7 7 8 8 8 8 8 6 9 8 9 10 10 8 8 7 7 8 8 9 11 11 8 7 8 8 7 12 8 7 15 19 19 19 18 17 17 16 15 14 12 11
6 7 7 7 8 8 8 7 7 8 8 8 8 9 9 7 7 7 7 7 7 8 10 7 8 9 10 10 15 10 9 19 19 20 19 19 18 17 16 15 14 13 11
6 7 7 8 8 8 7 6 8 9 9 9 9 10 10 10 7 7 7 7 6 7 9 9 8 9 10 9 9 8 9 8 9 18 19 18 18 17 16 15 13 13 12
6 7 7 8 8 9 7 7 9 9 8 9 10 10 11 10 10 8 7 8 7 6 7 11 9 8 9 9 8 9 9 10 8 15 18 18 18 17 16 15 13 12 11
7 7 7 8 8 8 8 7 8 9 8 8 8 9 10 10 10 9 9 7 6 7 6 8 9 8 7 7 8 9 10 8 10 12 16 16 17 17 16 15 12 11 10
7 7 7 8 8 8 8 9 9 9 8 8 8 8 8 9 10 10 8 7 6 6 6 7 8 7 7 7 7 8 9 8 9 10 10 11 13 15 16 14 13 10 10
8 7 8 8 8 8 8 10 8 7 8 8 7 7 8 13 17 14 11 8 7 5 5 6 7 8 7 8 7 7 9 10 10 6 6 7 7 6 7 11 11 11 10
7 7 7 8 9 9 18 23 16 6 7 7 8 7 8 10 15 20 22 19 16 10 7 5 5 7 8 8 8 8 9 10 8 6 8 9 6 6 6 5 9 11 11
7 8 7 8 9 12 22 22 22 10 6 7 7 7 7 8 13 9 12 16 15 18 16 9 6 7 8 9 9 10 9 10 10 9 8 8 5 6 5 6 10 11 11
7 7 7 8 9 12 22 22 22 9 7 7 7 6 6 7 10 12 6 7 7 8 12 8 6 8 8 8 8 8 9 10 11 9 7 6 5 5 5 4 8 10 10
6 6 7 8 9 11 20 22 20 6 6 7 7 6 6 6 16 18 7 7 8 8 13 17 18 15 16 16 12 6 6 8 8 5 4 4 5 5 4 4 5 9 10
6 6 7 7 8 8 17 21 20 5 6 6 5 5 10 13 17 18 6 5 8 8 7 10 11 12 9 10 13 6 5 7 6 6 4 5 4 5 4 2 2 3 5
Wind_Direction
338 335 327 323 322 322 329 328 319 319 320 317 317 320 317 313 308 304 306 304 302 300 296 293 291 289 287 285 285 282 282 282 280 280 279 276 267 252 236 219 209 204 201
341 332 324 320 319 326 327 319 318 318 315 314 315 316 313 309 307 308 304 302 300 297 294 292 290 287 284 283 283 282 280 279 278 278 277 275 270 259 244 226 213 205 201
337 333 319 318 319 324 320 316 312 311 316 318 315 311 307 307 307 304 302 297 293 293 290 289 288 286 284 284 284 283 282 280 277 276 276 274 269 263 252 234 217 208 202
335 329 318 313 317 321 316 312 309 320 314 309 307 304 303 303 304 303 299 295 290 285 286 287 288 288 289 287 284 282 282 281 280 276 274 274 270 264 256 242 224 211 204
331 327 311 307 318 316 310 314 323 311 308 307 304 301 305 306 302 302 300 297 292 285 278 283 287 292 292 289 285 281 280 280 281 278 274 273 271 266 258 248 231 216 207
327 321 303 312 315 310 307 308 306 304 302 302 307 309 302 300 300 299 305 308 305 301 295 289 291 293 291 292 290 286 282 279 279 281 277 274 271 266 260 251 238 222 211
317 308 308 308 309 304 303 302 304 305 303 299 304 304 298 293 299 302 315 317 311 311 314 309 296 286 287 290 294 294 289 285 282 281 280 277 273 267 261 253 242 228 215
302 309 308 304 299 299 299 299 302 299 303 309 306 307 307 304 296 311 310 307 311 317 314 310 302 293 285 279 283 289 292 290 288 284 282 280 277 271 262 254 245 232 221
298 300 297 294 294 295 294 297 295 300 305 302 290 297 302 302 307 299 300 301 306 306 303 303 298 293 290 286 283 286 287 289 291 290 287 284 280 276 268 258 249 236 225
306 301 294 295 294 292 292 297 307 298 298 301 299 285 279 286 298 304 299 296 300 302 306 306 305 303 296 285 276 280 283 287 290 292 290 290 288 285 277 268 255 242 230
300 298 296 299 296 293 291 293 297 295 294 292 297 297 292 286 281 288 299 304 301 297 298 300 300 297 291 283 277 277 282 288 291 292 295 296 299 297 294 291 272 253 236
295 297 303 301 296 293 293 293 295 297 296 293 294 293 291 288 287 284 289 295 296 296 294 294 292 287 282 277 279 286 288 291 291 291 294 298 300 304 304 303 299 278 247
295 295 306 297 294 292 294 295 299 300 300 300 297 293 290 283 278 278 279 286 288 291 291 289 287 291 297 296 290 293 293 295 291 289 289 293 295 297 299 301 304 296 272
287 290 296 295 294 296 302 300 301 302 305 304 301 297 294 292 283 276 273 279 286 289 289 287 296 298 304 307 300 301 296 294 290 287 286 286 287 287 287 290 294 300 292
289 297 296 294 294 295 296 302 302 303 306 306 304 302 299 292 286 284 279 273 278 290 294 292 298 302 308 301 301 298 289 290 289 286 282 280 279 279 279 279 283 292 295
288 292 292 294 295 296 297 305 308 304 307 307 307 307 306 302 293 287 285 278 271 276 284 290 296 297 301 306 305 309 301 297 291 287 280 275 272 272 274 274 275 281 287
289 291 293 295 296 297 299 306 306 305 307 310 314 315 312 307 305 301 294 290 285 282 286 293 291 295 297 300 303 304 297 291 284 282 279 274 270 267 267 268 267 272 279
288 289 291 293 297 301 298 299 302 305 303 307 310 315 316 317 313 307 301 297 293 288 289 296 300 301 300 303 309 309 309 301 292 286 280 273 269 264 260 261 260 263 269
287 288 289 291 293 294 292 290 291 291 290 293 299 307 310 314 312 310 311 308 304 310 303 302 305 305 305 317 324 320 314 307 302 293 287 277 269 264 258 256 253 254 256
286 286 286 287 289 291 288 284 284 283 281 282 289 297 303 306 305 307 311 310 313 312 312 312 311 315 319 329 332 330 324 321 310 300 294 289 277 269 256 249 242 244 248
288 283 285 288 288 291 287 286 280 283 281 280 283 288 298 313 322 326 327 324 325 316 313 318 318 321 325 333 332 326 321 318 308 299 316 301 291 274 253 243 236 235 239
280 281 284 287 289 295 303 308 314 292 285 284 285 287 293 308 318 329 328 334 338 328 320 313 312 316 315 317 317 317 318 320 312 324 329 304 290 276 256 232 223 223 229
282 283 283 285 285 291 304 310 317 323 295 286 283 284 297 309 323 304 318 335 332 330 328 319 300 294 297 300 302 304 306 304 292 295 298 285 274 271 258 241 222 219 224
280 282 284 285 286 292 306 313 319 324 299 289 284 278 276 285 298 314 328 325 312 313 316 312 280 272 278 280 277 287 296 298 288 275 266 271 282 275 274 248 224 220 220
282 281 282 285 285 293 307 314 322 305 296 294 291 289 296 284 304 328 342 320 312 308 323 327 325 322 322 323 322 318 312 310 305 301 321 302 299 296 281 253 224 216 215
279 284 287 286 288 291 309 320 325 314 303 302 302 301 313 315 322 335 341 320 311 310 322 324 323 322 320 316 323 319 300 299 301 297 332 334 305 306 292 268 223 206 206